Погода в Южноуральске

Россия / Челябинская область     54°26′32″N   61°16′05″E
темп.,
°C
ветер,
м/с
пор.,
м/с
влажн.,
%
обл.,
%
осадки,
мм/ч
давл.,
гПа
погр.,
м
8 мая, сб
сб823:00+12ююз333952 0.0 101921
02:00+11юз2241100 0.0 101910
05:00+10ю1144100 0.0 101910
08:00+14ююв2238100 0.0 1019144
11:00+17ююв2230100 0.0 1018694
14:00+20юз0124100 0.0 10172428
17:00+20с212489 0.0 10162577
20:00+17ссв2234100 0.0 101617
9 мая, вс
вс923:00+15св2234100 0.0 101628
02:00+13с224098 0.0 101613
05:00+12св3448100 0.0 101650
08:00+15в5846100 0.0 1017449
11:00+19с253283 0.0 10161859
14:00+20св552995 0.0 10162460
17:00+20св6631100 0.0 10162345
20:00+17св2344100 0.0 101732
10 мая, пн
пн1023:00+14вюв115599 0.0 101815
02:00+13св365939 0.0 1019121
05:00+13св3662100 0.0 1020191
08:00+16ссв235845 0.0 1021295
11:00+19св56425 0.0 10221775
14:00+21св56315 0.0 10212351
17:00+21св45285 0.0 10212411
20:00+18св34423 0.0 102261
11 мая, вт
вт1123:00+14вюв334533 0.0 102336
02:00+12ю224793 0.0 102419
05:00+12ююз2248100 0.0 102424
08:00+15юз3544100 0.0 1024207
11:00+18з454196 0.0 1024837
14:00+16ссз126457 0.1 1024468
17:00+19сз465045 1.4 10231637
20:00+16с49542 0.3 1024271
12 мая, ср
ср1223:00+10ссз38622 0.3 1026141
02:00+9с397847 0.0 1027205
05:00+7ссз3480100 0.0 102876
08:00+11ссз3562100 0.0 1028265
11:00+15сз354618 0.0 10271329
14:00+18ссз5734100 0.0 10251972
17:00+10св2380100 0.8 1026177
20:00+11св1375100 0.2 1025157